Location: Ellerstadt
(49.4644°N, 8.2615°E)
Time: 04:56:52
(UTC+00:00)

Cosmos 1844 - Pass Details

Date: 03 March 2021
Orbit: 822 x 868 km, 70.9° (Epoch: 11 April)

Event Time Altitude Azimuth Distance (km) Brightness Sun altitude
Rises 18:33:11 0° 331° (NNW) 3,462 7.4 -13.8°
Reaches altitude 10° 18:35:40 10° 333° (NNW) 2,518 6.6 -14.2°
Maximum altitude 18:41:29 79° 61° (ENE) 881 3.7 -15.1°
Enters shadow 18:47:07 10° 148° (SSE) 2,447 5.7 -16.0°
